Location: Cuzcurrita-R�o Tir�n
(42.5415°N, 2.9642°W)
Time: 09:04:42
(UTC+00:00)

STARLINK-1045 - Pass Details

Date: 27 February 2020
Orbit: 549 x 551 km, 53.0° (Epoch: 10 April)

Event Time Altitude Azimuth Distance (km) Brightness Sun altitude
Rises 18:27:24 0° 228° (SW) 2,706 8.1 -6.1°
Reaches altitude 10° 18:29:38 10° 227° (SW) 1,816 7.1 -6.5°
Maximum altitude 18:33:45 77° 141° (SE) 567 3.6 -7.3°
Drops below altitude 10° 18:37:54 10° 56° (NE) 1,828 5.8 -8.1°
Enters shadow 18:38:31 - 55° (NE) 2,075 6.0 -8.2°
